| time (UTC) | temp F | wind direction | speed MPH | gust MPH | rain 1hr in | rain 24hr in | rain mn in | humidity % | barometer mb |
| 20260505083026 | 55 | 17 | 7.0 | 13.0 | 0.00 | 0.00 | 0.00 | 49 | 1008.0 |
| 20260505081525 | 55 | 353 | 7.0 | 14.0 | 0.00 | 0.00 | 0.00 | 48 | 1008.3 |
| 20260505080021 | 56 | 4 | 8.0 | 18.0 | 0.00 | 0.00 | 0.00 | 46 | 1008.8 |
| 20260505074519 | 56 | 47 | 7.0 | 13.0 | 0.00 | 0.00 | 0.00 | 49 | 1008.8 |
| 20260505073016 | 56 | 359 | 4.0 | 12.0 | 0.00 | 0.00 | 0.00 | 48 | 1009.0 |
| 20260505071512 | 57 | 3 | 9.0 | 15.0 | 0.00 | 0.00 | 0.00 | 45 | 1009.3 |
| 20260505070008 | 58 | 345 | 4.0 | 17.0 | 0.00 | 0.00 | 0.00 | 43 | 1008.7 |
| 20260505064504 | 58 | 360 | 12.0 | 18.0 | 0.00 | 0.00 | 0.00 | 42 | 1008.2 |
| 20260505063002 | 59 | 328 | 10.0 | 18.0 | 0.00 | 0.00 | 0.00 | 42 | 1006.9 |
| 20260505061601 | 59 | 335 | 11.0 | 26.0 | 0.00 | 0.00 | 0.00 | 40 | 1007.0 |
| 20260505060055 | 60 | 29 | 9.0 | 21.0 | 0.00 | 0.00 | 0.00 | 41 | 1006.7 |
| 20260505054552 | 61 | 76 | 12.0 | 23.0 | 0.00 | 0.00 | 0.00 | 39 | 1006.6 |
| 20260505053047 | 63 | 353 | 11.0 | 22.0 | 0.00 | 0.00 | 0.00 | 39 | 1006.6 |
| 20260505051544 | 65 | 340 | 10.0 | 18.0 | 0.00 | 0.00 | 0.00 | 39 | 1006.2 |
| 20260505041537 | 69 | 17 | 7.0 | 19.0 | 0.00 | 0.00 | 0.00 | 38 | 1004.4 |
| 20260505040037 | 70 | 345 | 6.0 | 11.0 | 0.00 | 0.00 | 0.00 | 38 | 1004.3 |
| 20260505034541 | 71 | 14 | 7.0 | 10.0 | 0.00 | 0.00 | 0.00 | 38 | 1004.2 |
| 20260505033034 | 72 | 340 | 7.0 | 13.0 | 0.00 | 0.00 | 0.00 | 39 | 1003.9 |
| 20260505031534 | 72 | 34 | 8.0 | 14.0 | 0.00 | 0.00 | 0.00 | 45 | 1003.5 |
| 20260505030044 | 72 | 133 | 0.0 | 4.0 | 0.00 | 0.00 | 0.00 | 57 | 1003.2 |
| 20260505024532 | 72 | 356 | 3.0 | 10.0 | 0.00 | 0.00 | 0.00 | 57 | 1002.6 |
| 20260505023041 | 73 | 170 | 0.0 | 1.0 | 0.00 | 0.00 | 0.00 | 56 | 1002.0 |
| 20260505021532 | 75 | 170 | 0.0 | 0.0 | 0.00 | 0.00 | 0.00 | 53 | 1001.8 |
| 20260505020031 | 76 | 170 | 0.0 | 3.0 | 0.00 | 0.00 | 0.00 | 50 | 1001.5 |
| 20260505014537 | 76 | 237 | 0.0 | 5.0 | 0.00 | 0.00 | 0.00 | 49 | 1001.3 |
| 20260505013035 | 77 | 213 | 2.0 | 5.0 | 0.00 | 0.00 | 0.00 | 47 | 1001.2 |
| 20260505011530 | 78 | 164 | 1.0 | 5.0 | 0.00 | 0.00 | 0.00 | 46 | 1001.0 |
| 20260505010029 | 78 | 219 | 3.0 | 7.0 | 0.00 | 0.00 | 0.00 | 45 | 1000.9 |
| 20260505004552 | 79 | 211 | 4.0 | 8.0 | 0.00 | 0.00 | 0.00 | 44 | 1000.7 |
| 20260505003028 | 80 | 209 | 4.0 | 9.0 | 0.00 | 0.00 | 0.00 | 43 | 1000.6 |
| 20260505001530 | 80 | 168 | 5.0 | 8.0 | 0.00 | 0.00 | 0.00 | 43 | 1000.6 |
| 20260505000028 | 81 | 217 | 3.0 | 8.0 | 0.00 | 0.00 | 0.00 | 44 | 1000.8 |
| 20260504234528 | 81 | 182 | 2.0 | 7.0 | 0.00 | 0.00 | 0.00 | 44 | 1000.7 |
| 20260504233026 | 81 | 147 | 5.0 | 11.0 | 0.00 | 0.00 | 0.00 | 43 | 1000.7 |
| 20260504231526 | 81 | 186 | 8.0 | 12.0 | 0.00 | 0.00 | 0.00 | 42 | 1000.7 |
| 20260504230025 | 81 | 195 | 9.0 | 14.0 | 0.00 | 0.00 | 0.00 | 41 | 1000.7 |
| 20260504224532 | 82 | 212 | 7.0 | 17.0 | 0.00 | 0.00 | 0.00 | 40 | 1000.5 |
| 20260504223025 | 82 | 212 | 6.0 | 16.0 | 0.00 | 0.00 | 0.00 | 37 | 1000.5 |
| 20260504221532 | 83 | 224 | 7.0 | 18.0 | 0.00 | 0.00 | 0.00 | 36 | 1000.5 |
| 20260504220022 | 83 | 178 | 8.0 | 17.0 | 0.00 | 0.00 | 0.00 | 37 | 1000.6 |
| 20260504214520 | 82 | 162 | 9.0 | 16.0 | 0.00 | 0.00 | 0.00 | 38 | 1000.8 |
| 20260504213032 | 83 | 188 | 8.0 | 14.0 | 0.00 | 0.00 | 0.00 | 37 | 1000.9 |
| 20260504211518 | 82 | 216 | 8.0 | 16.0 | 0.00 | 0.00 | 0.00 | 37 | 1001.0 |
| 20260504210018 | 82 | 225 | 8.0 | 20.0 | 0.00 | 0.00 | 0.00 | 38 | 1001.1 |
| 20260504204515 | 82 | 207 | 6.0 | 14.0 | 0.00 | 0.00 | 0.00 | 38 | 1001.2 |
| 20260504203014 | 82 | 222 | 6.0 | 15.0 | 0.00 | 0.00 | 0.00 | 38 | 1001.2 |
| 20260504201512 | 82 | 205 | 12.0 | 19.0 | 0.00 | 0.00 | 0.00 | 39 | 1001.5 |
| 20260504200011 | 81 | 185 | 7.0 | 12.0 | 0.00 | 0.00 | 0.00 | 39 | 1001.5 |
| 20260504194515 | 82 | 249 | 7.0 | 14.0 | 0.00 | 0.00 | 0.00 | 40 | 1001.7 |
| 20260504193010 | 81 | 207 | 4.0 | 14.0 | 0.00 | 0.00 | 0.00 | 41 | 1001.7 |
| 20260504191505 | 80 | 189 | 8.0 | 15.0 | 0.00 | 0.00 | 0.00 | 43 | 1001.7 |
| 20260504190003 | 79 | 211 | 10.0 | 16.0 | 0.00 | 0.00 | 0.00 | 43 | 1001.8 |
| 20260504184508 | 80 | 139 | 8.0 | 12.0 | 0.00 | 0.00 | 0.00 | 43 | 1001.8 |
| 20260504183100 | 79 | 199 | 8.0 | 17.0 | 0.00 | 0.00 | 0.00 | 43 | 1001.9 |
| 20260504181602 | 78 | 190 | 6.0 | 17.0 | 0.00 | 0.00 | 0.00 | 45 | 1001.9 |
| 20260504180056 | 78 | 196 | 9.0 | 14.0 | 0.00 | 0.00 | 0.00 | 44 | 1002.2 |
| 20260504174554 | 78 | 207 | 8.0 | 16.0 | 0.00 | 0.00 | 0.00 | 44 | 1002.1 |
| 20260504173051 | 77 | 196 | 9.0 | 13.0 | 0.00 | 0.00 | 0.00 | 45 | 1002.3 |
| 20260504171549 | 76 | 164 | 5.0 | 13.0 | 0.00 | 0.00 | 0.00 | 47 | 1002.4 |